Theta_e
309 313 314 316 315 313 313 311 311 312 311 311 311 312 312 311 310 310 310 309 307 308 310 310 310 310 309 309 309 309 309 309 309 309 309 309 310 310 310 311 312 312 315 317 314 312 313 313 312 312 313 313 313 313 313 313 313 313 313 313 313 313 313 312 312 313 312 312 313 313 313 313 313 313 313 313 313 312 312 312 312 311 310 308 307 307
309 314 315 315 313 312 313 312 310 311 311 311 312 312 311 310 311 310 310 310 307 308 310 311 310 309 309 310 309 309 309 309 310 309 309 310 310 311 311 311 312 312 316 316 312 312 312 312 312 313 313 313 313 313 313 313 313 312 312 312 313 312 313 313 313 313 313 313 313 313 313 313 313 313 313 313 313 313 312 312 312 311 310 309 308 307
312 314 313 312 310 310 313 313 311 311 312 312 312 311 311 311 311 310 310 311 309 308 311 311 309 309 309 309 309 310 310 309 310 310 310 310 310 311 312 311 311 313 316 315 312 312 312 312 313 313 313 313 314 314 314 314 313 312 313 312 313 313 313 313 313 313 313 312 312 312 312 312 312 312 312 313 312 312 312 312 312 311 310 309 308 307
316 317 313 309 308 310 312 311 311 312 311 312 312 311 312 311 311 311 312 314 311 309 310 310 309 309 309 309 310 309 308 309 310 310 311 311 310 311 311 311 312 313 314 314 312 311 311 313 313 313 313 313 314 314 313 314 313 313 313 312 312 313 313 313 313 313 312 312 311 311 311 311 311 311 312 311 312 312 312 312 311 311 310 309 308 307
317 315 309 308 310 310 311 311 311 312 311 312 313 312 312 312 311 311 312 313 311 312 311 309 311 313 312 313 316 313 309 309 309 310 312 312 310 310 311 312 313 312 312 313 312 311 312 313 313 313 313 313 313 313 313 312 312 312 312 312 312 312 312 312 312 312 311 311 310 310 310 310 310 310 310 311 311 311 311 311 311 311 311 310 308 307
314 311 307 311 313 310 311 313 313 314 312 312 315 313 311 312 312 312 312 310 312 316 313 310 314 316 314 316 322 321 317 314 312 311 312 310 310 311 312 314 314 312 311 312 311 312 312 313 313 313 312 313 313 312 313 312 312 312 312 312 311 312 312 312 311 311 311 311 310 310 310 310 310 310 311 311 312 312 311 312 311 311 310 310 309 307
313 310 308 313 315 312 313 314 315 313 311 312 316 316 313 311 312 313 311 311 315 316 311 312 316 316 314 316 319 317 315 316 315 313 311 309 311 312 313 314 313 311 310 311 311 311 312 312 312 312 312 312 312 312 312 312 312 312 312 312 312 312 312 312 311 311 311 311 310 310 310 310 310 310 311 312 311 311 311 311 311 311 310 310 309 308
313 311 310 313 315 315 314 314 314 311 312 315 315 316 316 314 313 313 311 312 314 313 311 312 314 314 315 315 315 314 314 317 316 315 312 309 311 313 314 314 311 310 311 311 311 311 311 311 312 312 312 312 312 312 312 312 312 312 312 312 312 312 311 311 311 311 311 310 310 310 309 309 310 310 310 310 310 311 311 311 311 310 310 310 309 308
310 313 314 314 315 315 314 315 315 311 313 316 311 310 313 313 314 313 312 313 312 311 313 312 311 315 318 314 313 313 315 319 318 320 318 310 309 313 314 313 310 310 311 311 311 311 311 312 312 312 312 312 312 312 312 312 312 312 312 312 311 311 311 310 310 310 310 310 310 310 309 309 309 309 309 309 309 309 310 310 310 310 309 309 309 308
309 311 311 315 317 315 317 317 315 314 314 311 307 310 313 312 312 312 312 314 315 314 314 313 313 316 319 317 315 313 315 320 321 321 319 311 310 313 313 312 310 309 310 311 311 312 312 312 312 312 312 312 313 312 312 312 312 312 312 312 311 311 310 310 309 309 309 309 309 309 309 309 309 308 308 308 308 308 308 308 309 309 309 309 308 308
308 306 306 311 313 312 315 311 307 310 309 306 309 315 316 314 312 313 314 315 315 317 316 315 314 314 317 318 317 316 316 318 319 317 316 311 311 314 313 310 310 310 311 311 311 312 313 313 312 312 312 312 313 312 313 312 312 311 311 311 311 310 310 309 309 308 308 307 308 308 308 308 308 308 308 308 308 308 308 308 308 308 308 308 308 308
307 307 308 310 309 307 312 309 304 304 304 308 317 316 314 316 315 316 318 315 315 320 317 314 312 312 317 317 315 318 317 315 314 314 315 311 310 312 311 309 310 310 310 311 311 312 312 312 312 312 312 312 312 312 313 313 312 311 311 311 310 310 309 309 308 308 307 307 307 307 307 307 307 307 307 307 307 307 307 308 308 307 307 307 307 307
313 313 310 309 308 306 310 312 309 307 306 310 315 312 312 317 317 318 320 316 317 320 314 309 310 311 314 314 313 315 316 314 311 310 312 310 308 310 310 309 309 309 310 310 310 311 310 310 311 311 311 311 312 312 312 313 313 312 311 311 310 310 309 308 307 307 307 307 307 306 306 306 306 306 306 307 307 307 307 307 307 307 307 307 307 307
321 316 309 308 310 308 310 313 313 313 311 309 311 313 315 317 317 321 322 317 317 319 312 308 311 313 314 315 316 315 313 312 310 307 309 308 307 308 309 309 309 309 310 310 309 309 309 309 309 309 310 310 311 311 312 312 313 312 311 310 310 310 309 308 307 306 306 306 306 306 306 305 305 305 306 306 306 306 306 306 306 306 306 307 307 307
321 321 317 315 314 310 309 311 316 318 311 308 312 314 315 319 322 323 323 321 321 320 312 307 312 318 317 317 317 311 308 308 308 307 308 306 306 307 308 309 309 309 309 308 308 308 307 307 307 308 308 309 310 311 311 312 312 311 310 309 309 309 309 308 307 306 306 305 305 305 305 304 304 304 305 305 305 305 305 305 305 306 306 306 306 307
316 322 321 313 309 310 309 309 313 318 314 309 312 314 314 320 324 321 320 321 320 318 314 311 314 317 315 314 313 309 307 307 306 306 306 306 306 308 309 307 306 306 306 306 306 305 305 306 306 306 307 307 309 309 310 311 311 311 310 309 308 308 308 307 306 305 305 304 305 304 304 304 304 304 304 304 304 304 305 304 304 305 305 305 305 305
316 322 318 308 306 309 308 308 308 314 316 311 310 313 314 315 318 318 319 319 317 317 317 316 317 315 313 315 314 312 313 311 309 307 304 304 307 307 306 304 302 303 303 303 304 303 303 304 303 304 304 304 305 306 307 308 308 309 309 309 308 307 307 306 306 305 304 304 304 304 304 304 304 304 304 304 304 304 304 304 304 304 304 304 305 305
318 319 317 312 312 309 303 305 306 306 311 314 314 314 312 311 313 315 317 318 316 316 318 318 318 316 316 320 317 314 316 315 313 310 304 303 306 305 302 300 299 299 301 301 301 301 301 301 301 302 302 302 303 303 304 304 305 306 307 307 307 307 306 306 305 305 305 304 303 303 303 303 303 303 303 303 303 303 303 303 304 304 303 304 304 304
316 317 318 315 314 310 304 308 311 306 306 310 312 311 312 314 315 314 316 317 316 316 318 318 318 316 315 318 317 316 316 313 312 310 305 303 303 300 299 298 296 297 298 298 299 299 300 300 300 301 301 301 301 302 302 302 303 304 305 305 306 306 305 305 305 305 305 304 304 303 302 302 302 302 302 302 302 302 303 303 303 304 304 304 303 303
316 316 319 315 312 311 310 311 316 314 308 306 307 309 311 314 315 315 316 317 317 316 317 318 318 316 317 318 316 317 315 309 309 308 303 301 299 297 297 296 295 296 295 296 296 297 298 298 299 299 299 299 299 299 300 300 301 302 302 303 303 304 304 304 304 304 304 304 304 304 303 302 302 301 301 301 301 302 302 302 303 303 303 304 303 303
315 316 316 315 313 313 312 314 317 317 314 310 310 311 310 311 314 315 314 315 316 314 315 318 316 317 324 323 317 316 311 305 306 305 300 298 297 296 296 295 295 295 295 296 296 296 297 297 297 297 297 297 298 298 298 298 299 299 300 300 301 301 302 303 303 303 303 303 304 304 304 303 303 302 301 300 300 301 301 302 302 302 302 302 302 303
315 317 316 316 316 314 315 317 316 315 316 315 313 313 311 311 314 314 313 315 316 314 314 316 315 318 326 325 317 313 306 301 303 301 297 297 296 295 295 294 294 294 295 295 295 295 295 295 295 295 295 296 296 297 297 297 297 297 297 298 298 299 299 300 300 301 302 302 303 303 303 304 304 304 303 302 300 300 300 301 301 301 301 302 302 302
314 316 315 315 315 315 316 316 312 311 314 315 313 313 314 313 312 314 315 316 317 315 314 315 315 318 323 323 315 308 301 299 300 298 297 297 295 295 295 295 295 295 294 294 294 294 293 293 293 294 294 294 294 294 295 295 295 295 295 295 296 297 297 297 298 298 299 300 301 301 302 303 303 303 303 303 302 301 300 300 300 300 300 300 301 301
311 313 314 315 315 316 318 316 311 309 311 312 313 313 313 313 313 314 313 314 315 315 315 316 317 316 318 319 312 303 299 299 298 297 297 296 295 294 294 295 295 295 295 295 294 294 294 293 293 293 293 292 293 293 293 293 293 293 294 294 294 294 295 296 296 297 297 298 298 299 300 301 302 302 302 303 303 302 301 300 300 300 300 299 299 299
311 313 314 314 315 315 316 316 314 312 312 314 315 314 312 312 313 313 311 311 312 314 315 315 315 315 317 318 314 305 301 299 297 296 295 294 294 293 293 293 293 293 293 294 294 294 295 294 294 294 293 292 292 292 292 292 292 292 293 292 292 292 293 293 294 295 295 296 297 297 298 298 299 300 301 302 302 302 302 301 301 300 300 299 299 299
311 313 313 313 314 314 313 313 313 312 312 312 313 313 312 312 313 313 312 313 314 314 314 314 314 314 314 315 315 310 303 299 297 295 294 293 293 292 292 291 291 291 291 291 291 292 293 293 294 294 293 293 293 292 292 292 292 292 292 292 292 291 291 292 292 292 293 294 295 296 296 297 297 297 298 300 301 301 301 301 301 301 301 300 299 299
310 311 312 313 313 313 312 312 311 311 311 311 311 311 311 311 311 311 311 312 313 313 313 312 312 313 312 312 313 309 303 299 297 295 294 293 292 292 291 291 290 290 290 290 290 290 290 291 291 292 292 292 292 292 292 292 292 292 293 293 293 292 292 292 291 291 292 292 292 293 294 295 295 296 296 297 299 300 301 301 301 301 301 300 300 299
310 309 311 311 311 311 311 311 310 310 310 310 310 310 310 311 310 310 311 311 311 311 312 312 312 311 311 311 311 306 300 297 295 294 293 293 292 291 291 290 290 290 290 289 289 289 289 289 289 290 290 290 291 291 292 292 292 292 292 292 292 293 293 292 292 291 291 291 291 292 292 292 293 294 295 295 296 298 299 301 301 301 301 301 300 299
308 307 308 309 308 308 308 308 308 307 307 307 308 308 308 308 308 309 309 309 309 309 309 310 309 309 309 308 304 299 297 297 295 294 293 293 292 291 290 290 290 290 290 289 289 289 289 288 289 289 289 289 289 290 290 290 291 291 291 291 291 291 292 292 292 291 291 291 291 291 291 291 292 292 293 294 295 296 297 298 300 300 300 300 300 300
304 305 306 306 305 304 304 304 304 304 303 303 303 304 305 305 306 306 306 306 306 306 307 307 307 307 306 302 297 294 295 296 295 294 294 293 293 291 290 290 290 289 290 289 289 289 288 288 288 288 288 288 289 289 289 289 289 290 290 290 290 291 291 291 291 291 291 291 291 291 291 291 291 291 292 292 293 294 295 295 297 298 300 299 299 299
303 304 304 303 302 302 302 302 302 301 301 301 301 302 302 303 303 303 303 304 304 304 305 305 306 306 301 296 294 294 293 293 294 293 294 294 293 291 290 289 289 289 289 289 289 288 288 288 288 288 288 288 288 288 289 288 289 289 289 289 289 289 290 290 290 290 290 290 290 290 290 291 291 291 291 291 292 292 293 294 295 296 298 299 299 297
301 302 302 301 300 301 301 301 300 299 299 299 299 300 300 300 301 301 302 303 303 303 304 304 305 303 297 293 293 293 292 292 292 292 292 293 293 292 290 289 289 289 289 289 288 288 288 287 287 287 287 287 288 288 288 288 288 288 288 289 289 289 289 289 289 289 289 289 289 289 289 290 290 290 291 291 291 291 292 292 293 294 296 297 298 297
300 299 299 299 299 300 300 299 297 298 297 297 297 298 298 298 298 298 299 301 301 302 303 303 301 298 295 293 293 292 292 291 291 291 291 291 292 292 290 289 289 289 289 289 288 288 288 287 287 287 287 287 287 287 288 288 288 288 288 288 288 288 288 288 289 289 289 289 289 288 288 288 289 289 290 290 290 291 291 291 292 293 294 295 297 297
299 299 298 298 298 298 298 297 296 296 296 295 297 300 300 299 299 299 299 300 300 298 299 299 297 295 294 294 293 293 292 291 291 290 290 290 292 293 291 289 289 288 288 288 288 288 288 287 287 287 287 287 287 287 287 287 287 287 287 287 287 287 287 288 288 288 288 288 288 288 288 287 287 287 288 288 289 290 290 290 290 291 292 293 295 296
298 297 297 297 297 296 297 297 296 295 295 296 299 299 298 299 301 300 298 298 297 296 296 295 294 294 294 293 292 293 292 290 290 290 289 289 291 292 291 289 288 288 288 288 288 288 287 287 287 287 286 286 286 286 286 287 287 287 287 287 287 287 287 287 287 287 287 287 287 288 287 287 286 286 286 286 287 288 289 290 290 290 290 291 292 294
296 296 295 296 297 296 296 296 295 295 295 296 298 297 295 297 298 297 297 296 295 294 295 294 294 294 294 292 292 292 291 291 291 291 289 290 291 292 290 288 288 288 288 288 288 288 287 287 287 286 286 286 286 286 286 286 286 286 286 286 286 286 286 286 286 286 286 286 286 286 286 286 286 286 286 285 285 286 287 288 289 289 290 290 291 292
295 295 295 295 295 295 294 295 295 295 295 296 298 297 294 295 296 296 297 296 294 292 292 294 295 295 295 293 292 292 292 292 291 291 290 291 292 291 289 288 288 288 288 288 288 288 287 287 286 286 286 286 286 286 286 285 285 285 285 285 285 285 285 285 285 285 285 285 286 286 285 285 285 285 285 285 285 285 285 286 287 288 289 289 290 291
294 295 295 294 295 295 295 295 295 295 295 297 297 295 292 293 294 294 296 296 293 289 289 293 296 296 295 294 293 292 292 291 291 290 290 292 292 290 288 288 288 288 288 288 287 287 287 287 286 286 286 286 286 286 285 285 285 285 285 285 285 284 285 285 285 285 285 285 285 285 285 285 285 285 285 285 285 285 285 285 285 286 287 288 288 289
293 294 295 295 295 296 296 297 297 296 297 298 297 294 292 291 292 293 295 295 291 286 287 292 294 294 293 293 293 292 292 291 290 289 290 291 290 289 288 288 288 288 288 288 287 287 287 287 286 286 286 286 286 286 285 285 284 284 285 285 284 284 284 284 284 284 284 284 284 285 285 285 285 285 285 285 285 285 285 285 285 285 285 286 287 288
293 293 294 295 295 296 296 296 296 296 297 297 296 294 291 291 292 293 295 294 289 287 288 290 291 291 291 291 292 292 292 291 290 289 289 290 289 288 288 288 288 288 288 288 288 287 287 287 286 286 286 286 286 286 285 284 284 284 284 284 284 284 284 284 283 283 283 284 284 284 284 284 284 284 284 284 285 285 285 285 285 284 285 285 286 287
293 293 293 293 295 296 296 296 295 296 297 298 296 293 291 290 291 293 294 293 289 287 288 289 289 290 290 290 291 291 291 291 290 290 290 290 289 289 289 289 288 288 288 288 288 287 287 286 286 286 286 286 286 285 285 284 284 284 284 284 284 284 284 283 283 283 283 283 284 284 284 284 284 284 284 284 284 284 285 285 285 284 284 285 285 286
292 292 291 292 293 294 294 295 294 293 295 296 294 291 289 291 293 294 292 290 288 288 288 289 289 289 290 290 290 290 290 290 289 289 290 290 290 290 289 289 288 288 288 288 287 287 286 286 286 286 286 286 285 284 284 283 283 283 283 283 283 283 283 282 282 282 283 283 283 284 284 284 284 284 284 284 284 284 284 285 285 285 284 284 285 285
293 293 293 293 292 292 292 292 292 293 293 292 291 291 290 292 294 293 290 289 289 289 288 288 289 289 289 289 289 289 289 289 289 289 289 289 290 290 290 289 288 288 288 287 287 286 285 285 285 285 285 285 285 284 283 282 282 282 282 282 283 282 282 282 282 282 282 282 283 283 283 283 284 284 284 284 284 283 284 284 284 284 284 284 284 284
292 293 293 293 293 293 292 293 294 294 292 290 290 292 292 292 292 291 289 289 289 289 288 288 288 288 289 289 288 288 288 288 288 288 288 289 289 290 290 289 288 287 287 286 286 286 284 284 284 284 284 285 284 283 282 281 281 281 282 282 282 281 280 281 281 281 281 282 282 283 283 283 283 283 283 284 283 283 283 284 284 284 284 284 284 284
293 293 292 291 292 293 293 293 293 291 290 289 290 290 290 290 290 290 289 288 289 289 289 288 288 288 288 288 288 288 288 288 288 288 288 289 289 289 289 288 287 286 286 285 285 284 283 283 282 282 283 283 283 282 281 281 280 280 281 281 280 279 279 279 279 280 281 281 282 282 282 282 283 283 283 283 283 283 283 283 283 284 284 284 284 284
290 290 289 289 290 291 290 291 290 289 289 290 290 290 290 290 290 290 289 288 289 289 289 288 288 288 288 288 287 287 287 288 288 288 288 288 288 288 287 286 286 285 284 284 284 283 282 281 281 281 281 281 282 281 280 280 279 278 279 278 277 276 276 276 276 278 279 280 281 281 281 281 282 283 283 283 282 282 282 282 282 283 283 283 283 283
289 289 288 289 290 290 289 290 290 289 290 290 290 290 290 290 290 289 289 289 289 289 288 288 288 287 287 287 287 287 287 287 287 287 287 287 286 286 285 285 284 283 283 283 282 281 280 279 280 280 279 280 281 280 279 278 277 277 276 275 274 273 273 273 274 275 276 278 279 279 279 279 280 280 281 282 282 281 282 282 281 281 281 282 282 282
289 289 289 289 289 289 289 289 289 289 290 290 290 290 289 290 290 289 289 289 289 288 288 287 287 287 287 287 286 286 286 286 285 285 285 284 284 284 283 283 282 282 282 281 280 279 278 278 277 277 277 278 279 278 276 275 275 274 273 272 271 271 271 271 272 272 273 274 275 276 276 276 276 276 277 278 279 279 280 281 280 279 280 281 281 280
289 289 290 290 289 289 289 289 289 289 289 289 289 289 289 289 289 289 289 288 288 288 288 287 287 287 286 285 285 285 284 284 284 282 282 283 283 283 282 281 281 280 280 280 279 278 276 275 274 274 274 274 275 274 273 273 272 272 270 269 269 268 268 269 270 270 270 271 272 273 273 273 272 273 273 274 276 277 278 279 279 278 279 281 281 280
289 289 289 289 289 289 289 289 289 289 289 289 289 289 289 289 288 288 288 288 287 287 287 287 287 286 285 284 283 283 282 282 282 281 280 281 281 281 280 280 279 279 279 278 276 276 275 273 272 271 271 271 271 271 270 270 270 269 268 267 266 266 266 266 267 267 268 269 268 269 269 269 270 270 270 270 272 273 275 277 277 276 277 280 281 280
290 290 290 290 289 289 289 289 289 289 288 289 289 289 289 288 288 288 287 287 287 286 286 285 285 285 284 283 282 281 281 281 280 279 279 280 280 280 279 278 277 277 276 275 274 273 273 272 271 270 269 269 269 268 268 268 267 267 266 265 265 265 265 264 264 265 265 265 265 265 265 266 266 267 268 268 268 269 271 274 275 275 275 276 278 278
Wind_Speed
7 4 3 6 9 10 9 10 12 7 2 1 2 4 6 7 9 8 9 10 3 6 9 10 17 16 13 13 14 26 30 27 30 28 26 33 39 41 39 42 45 45 45 42 39 36 32 31 30 28 28 26 26 24 23 24 24 24 24 27 28 28 29 32 34 36 38 41 43 46 47 49 50 51 52 51 51 50 50 50 50 50 50 50 49 47
5 5 7 12 10 6 5 5 5 4 4 5 5 6 6 6 11 9 9 11 3 2 5 7 15 17 14 14 15 23 23 21 26 20 20 30 38 41 41 41 40 39 42 39 32 30 29 29 28 27 25 22 21 19 19 20 20 20 21 23 24 25 27 29 31 34 37 39 41 43 44 46 48 50 51 50 50 50 50 50 51 52 52 51 50 49
2 4 11 15 6 2 2 4 3 4 5 5 4 4 5 4 8 8 7 8 1 1 6 8 14 14 14 18 18 21 19 21 28 24 26 32 35 42 40 31 31 36 40 37 31 31 31 30 27 24 21 18 16 15 15 16 16 17 18 20 21 23 25 27 29 31 34 36 38 40 41 43 45 47 48 49 49 49 51 52 53 53 53 52 52 51
3 6 13 14 6 3 3 2 3 3 3 5 4 4 6 5 5 6 5 5 3 4 7 10 14 11 12 16 14 17 18 22 32 32 34 38 37 40 36 29 32 36 39 38 35 32 29 27 24 22 20 18 15 13 13 13 13 14 15 17 19 21 23 24 26 28 31 34 36 37 39 41 43 44 45 47 49 51 53 53 54 54 54 53 53 53
6 6 5 4 5 7 7 4 3 5 5 5 6 5 9 10 9 9 5 6 6 5 4 7 12 7 5 6 5 8 9 13 23 27 33 34 24 24 29 30 31 29 30 32 30 28 26 26 26 26 24 21 18 15 12 11 12 13 14 15 17 20 22 24 26 28 31 34 36 38 39 41 44 45 46 47 49 52 54 54 54 55 54 54 54 53
7 8 4 4 3 5 5 6 6 7 5 4 5 11 15 13 11 10 6 7 5 4 3 6 8 6 1 1 4 5 3 7 13 18 24 19 12 15 23 26 25 22 20 20 24 26 26 26 27 27 25 22 20 17 14 12 12 12 14 15 16 19 21 23 25 28 31 34 36 39 41 43 45 46 47 48 49 50 51 52 53 53 53 54 53 53
4 5 2 5 4 6 5 6 6 8 4 5 5 10 13 11 9 9 6 3 0 3 3 3 2 7 3 3 7 6 3 10 13 12 13 15 18 22 24 26 23 16 16 21 25 25 24 26 26 26 24 23 21 19 17 15 12 11 12 14 16 18 19 22 24 27 30 33 36 39 40 41 43 44 43 43 45 46 46 47 48 49 51 52 52 52
4 1 5 5 5 6 5 6 6 9 5 5 4 4 6 7 7 6 3 3 3 3 4 1 3 6 8 5 5 3 5 11 14 10 10 14 19 21 21 21 16 16 21 26 26 25 26 27 29 30 30 29 28 25 22 19 16 14 12 13 15 18 20 23 25 27 30 32 35 37 38 39 41 41 41 41 43 44 44 45 46 47 48 50 51 52
4 5 5 6 5 4 6 5 7 11 5 5 3 5 5 4 4 4 3 3 2 3 4 2 4 3 9 4 1 1 5 9 11 9 9 12 15 16 15 14 15 19 25 27 27 30 32 32 32 33 34 35 35 34 31 27 23 20 17 15 15 17 20 23 26 28 30 31 32 33 35 37 38 39 40 41 42 43 43 45 46 46 47 48 50 51
1 3 7 8 6 6 7 4 8 11 5 3 5 5 4 3 3 4 3 2 2 3 4 5 5 4 10 4 3 1 3 6 7 6 6 10 15 15 11 15 19 22 27 30 29 32 33 32 32 32 32 34 35 36 36 34 30 27 25 22 20 18 18 20 23 26 28 30 31 32 33 34 35 37 39 40 41 42 43 44 45 46 46 46 48 50
1 3 2 5 6 6 5 2 3 7 5 4 6 4 5 4 4 3 1 3 1 5 5 9 10 5 6 4 3 3 3 5 4 4 6 10 16 15 12 19 24 25 29 30 30 32 32 31 29 29 30 31 33 35 35 34 33 32 30 29 27 24 22 20 20 22 24 27 30 31 32 32 32 34 36 38 39 41 42 42 43 44 44 45 46 48
1 2 1 5 8 5 6 3 1 2 4 5 4 3 3 3 3 4 4 3 1 6 4 6 7 6 6 5 1 4 6 6 3 5 9 10 15 19 18 22 24 27 28 29 31 32 31 29 29 29 29 31 33 34 35 35 34 32 31 31 30 28 26 23 21 20 21 23 26 29 31 32 32 34 35 36 37 39 40 41 41 42 43 44 45 47
1 5 3 3 5 7 6 2 2 3 3 4 3 3 1 3 3 3 3 1 3 7 4 2 2 4 9 7 3 9 13 9 6 6 10 9 14 18 20 21 23 27 28 28 30 30 28 27 27 27 29 32 32 31 32 34 33 30 28 28 27 27 26 24 23 21 21 22 23 25 28 29 31 33 34 35 36 37 38 39 40 41 41 42 43 46
3 4 2 0 4 9 10 5 2 2 4 6 5 5 3 1 1 3 3 2 4 5 3 1 2 3 8 6 7 12 14 9 4 5 10 11 13 13 16 19 24 27 25 24 26 25 24 25 26 26 27 29 28 27 27 28 29 28 26 25 23 23 23 23 22 21 21 22 23 24 26 28 30 32 33 35 36 36 37 38 39 39 39 39 40 42
4 7 4 5 3 9 12 8 5 4 5 6 4 5 4 4 4 4 3 4 6 4 2 2 2 4 4 3 5 10 8 8 8 9 10 10 8 7 14 21 25 24 21 22 23 24 25 26 26 26 26 26 25 24 24 24 24 25 26 26 24 22 22 21 20 20 20 20 22 24 25 27 29 31 33 34 35 37 38 38 39 39 38 38 38 38
4 8 6 3 2 10 10 4 5 6 2 3 3 4 2 4 5 3 4 5 3 3 3 2 3 5 4 6 9 8 6 7 7 6 7 11 12 14 21 25 24 24 24 24 25 26 26 25 26 26 26 25 24 23 23 23 24 24 26 27 26 24 22 22 21 20 19 19 20 22 24 26 28 30 32 33 35 37 38 39 39 39 38 38 38 37
4 7 3 2 1 7 7 2 3 3 2 2 3 3 4 4 5 2 5 1 1 4 5 4 6 6 4 10 9 0 2 4 6 7 11 16 19 23 27 27 25 26 28 27 27 27 26 26 27 27 27 27 26 25 24 24 23 24 24 25 26 26 24 22 21 20 19 18 18 20 22 25 27 29 30 32 34 36 38 39 39 39 39 39 38 38
4 6 3 3 3 5 3 1 2 1 4 5 3 4 2 2 3 2 2 2 1 7 5 5 11 9 4 8 6 3 2 4 5 6 10 17 22 24 26 26 26 28 29 27 27 27 28 29 29 29 29 29 28 27 26 25 24 23 23 24 25 26 26 25 23 22 20 19 18 18 20 22 25 27 30 31 33 35 36 38 38 39 40 40 39 39
2 4 5 2 3 2 2 2 2 2 2 4 2 2 2 2 2 1 2 2 4 8 5 6 11 9 6 9 8 10 10 4 6 8 10 14 19 21 22 24 26 28 29 29 29 30 30 31 30 30 30 28 27 27 26 25 24 22 22 22 22 23 25 25 25 24 23 22 20 18 18 19 22 25 28 30 32 34 36 37 37 37 38 39 39 40
1 2 4 1 1 0 3 1 3 2 1 2 1 2 1 3 3 2 3 2 4 8 7 7 9 6 6 6 7 11 8 8 8 8 9 10 15 20 21 24 26 29 31 31 32 32 31 30 29 29 28 29 28 28 27 26 24 24 23 23 22 21 22 23 24 25 24 24 23 21 19 18 18 20 23 26 29 32 34 35 37 37 38 38 39 40
2 2 4 1 2 1 1 4 6 6 4 2 1 3 2 2 1 1 2 2 3 7 7 7 8 6 4 3 5 7 8 10 9 9 8 11 18 22 24 27 29 31 32 32 31 31 30 30 29 28 27 27 26 26 27 27 26 26 25 25 24 23 23 23 23 24 25 25 25 24 23 21 20 19 19 21 24 28 30 32 34 36 37 39 40 40
0 2 3 2 3 4 5 6 6 7 6 5 4 5 5 5 3 4 5 4 3 5 5 7 8 5 3 5 7 6 10 9 10 10 8 13 20 23 25 27 28 29 30 30 30 29 29 29 29 29 29 28 28 28 28 28 28 27 27 27 26 26 25 25 25 25 25 25 25 25 25 24 24 22 21 21 21 23 25 28 30 32 35 38 39 40
2 2 3 6 6 6 8 6 5 6 4 3 3 3 3 3 3 6 7 4 3 4 4 6 7 3 3 4 3 8 11 10 12 14 11 13 18 21 23 24 25 26 28 28 29 30 30 31 31 31 31 31 32 31 31 30 29 29 30 29 28 27 27 27 26 26 26 26 25 26 26 26 26 25 25 24 23 22 23 25 26 28 31 34 36 38
2 2 2 5 4 4 7 6 1 2 2 1 2 3 3 4 5 7 6 3 3 5 5 7 7 3 2 3 4 12 14 13 16 16 13 13 16 19 22 23 24 25 25 26 27 29 30 31 32 33 34 34 34 34 34 34 33 32 31 31 31 30 29 28 28 27 27 27 26 26 26 27 27 27 27 26 26 25 24 24 24 26 29 31 34 36
1 1 2 3 3 3 5 6 4 3 1 1 3 3 3 4 6 5 3 2 3 5 7 8 6 2 2 4 5 9 11 11 12 14 14 14 14 17 19 21 23 25 25 26 26 27 28 30 31 33 34 35 35 35 35 35 35 35 34 34 34 33 32 31 30 29 28 28 27 27 27 27 28 28 28 28 28 27 27 26 25 25 27 29 32 35
1 2 2 4 5 5 6 6 3 2 1 1 2 4 3 3 5 4 3 4 4 6 8 8 7 4 3 7 7 6 7 7 8 10 11 12 12 14 16 19 21 23 25 26 27 27 28 29 30 31 32 33 34 35 35 35 35 35 35 35 35 35 35 34 33 33 32 31 30 29 28 28 29 30 30 30 30 29 29 28 27 27 27 28 31 34
0 2 4 7 9 9 9 8 4 4 5 5 6 7 7 7 6 4 4 5 6 7 7 8 10 10 9 10 7 4 5 4 5 5 6 9 11 13 15 17 19 22 24 25 26 27 28 29 29 30 31 31 32 33 34 35 35 35 36 35 35 36 36 36 36 35 34 34 33 32 31 30 30 30 31 31 31 31 30 30 29 29 30 29 29 31
1 2 5 9 11 10 10 11 9 8 9 9 10 11 12 11 9 9 10 10 9 9 8 9 11 12 11 9 4 3 4 2 4 3 4 6 9 12 15 18 21 23 24 25 26 26 27 28 28 29 29 29 30 31 32 33 34 34 36 36 36 36 36 37 38 37 37 36 35 35 35 33 32 30 30 30 31 31 31 31 31 31 31 31 32 32
2 4 6 9 11 10 11 11 8 6 7 7 8 10 11 12 12 13 14 13 11 11 11 11 13 16 13 6 2 3 3 2 2 2 3 5 8 10 13 16 19 22 23 24 25 24 25 25 25 26 26 27 28 29 29 31 32 33 34 35 36 36 37 37 38 38 38 37 36 36 35 35 34 32 31 29 29 30 30 31 31 31 31 31 33 34
2 3 5 6 7 8 9 9 7 7 9 10 10 10 11 14 16 16 16 15 14 16 16 15 18 18 10 1 6 5 3 2 2 0 3 5 7 9 12 15 17 18 20 21 22 23 23 24 24 24 25 26 26 27 27 28 29 30 31 32 33 35 36 37 38 38 38 37 37 36 35 35 35 34 34 32 31 30 29 30 31 32 32 31 31 33
2 3 3 3 4 7 9 10 9 9 10 11 11 11 14 17 17 17 17 16 16 17 16 16 18 13 2 4 4 5 4 2 1 2 5 6 5 8 12 15 17 19 19 20 21 22 22 24 25 26 26 27 26 26 26 27 28 29 29 30 31 32 33 35 37 38 38 38 38 37 36 35 35 35 35 35 34 33 31 30 31 31 32 32 31 31
3 3 4 4 4 7 9 10 10 10 11 11 12 16 20 19 16 15 15 14 13 13 13 13 11 5 3 3 1 3 3 1 1 3 7 7 5 6 11 15 19 20 20 20 22 23 24 25 26 27 28 28 27 26 26 27 28 29 29 30 31 31 32 33 34 36 37 38 39 39 38 37 36 36 35 35 35 35 34 32 31 31 32 32 32 30
2 2 3 4 5 7 9 8 4 6 9 11 11 14 17 17 16 15 14 13 9 6 8 9 5 1 3 3 2 1 1 1 2 5 10 10 8 7 10 15 20 21 20 21 22 23 24 25 26 26 27 27 27 27 27 27 28 29 30 31 32 32 33 33 34 35 36 37 39 40 40 40 39 38 37 35 35 35 35 34 32 31 32 32 32 31
5 6 5 4 4 8 8 3 4 4 11 11 6 4 7 9 11 11 10 8 4 1 2 1 2 3 3 3 2 3 4 5 6 8 10 11 10 9 11 17 22 22 22 22 22 22 23 24 25 25 26 26 27 27 28 28 29 30 31 31 32 33 33 34 35 36 36 37 38 39 41 41 41 41 40 38 37 36 35 35 34 33 32 32 33 32
7 8 6 3 3 5 3 3 4 10 10 6 2 1 2 4 4 5 3 2 1 1 3 4 4 4 4 4 5 8 8 9 10 9 11 11 11 10 11 18 22 22 23 24 24 24 24 25 26 27 27 27 27 28 29 29 30 31 31 32 33 33 33 34 35 36 37 37 38 39 40 42 43 43 42 42 41 39 38 37 36 35 34 33 33 33
8 6 3 2 3 2 0 3 8 7 4 6 6 2 0 1 3 1 1 2 2 2 3 4 3 3 4 7 9 11 12 11 11 13 15 12 12 12 12 18 21 21 22 23 24 25 25 26 27 29 29 29 28 29 30 30 31 32 31 32 32 33 34 34 35 35 36 37 38 38 39 41 43 44 45 45 44 43 41 40 38 37 36 35 35 34
8 5 3 3 4 2 2 6 6 6 8 10 8 2 1 2 3 2 0 3 4 3 2 2 3 5 7 11 14 14 11 8 8 13 15 11 14 12 12 18 20 21 23 24 24 25 25 26 27 29 30 32 32 32 32 31 32 33 33 33 33 33 34 35 36 36 37 37 38 39 40 41 42 43 45 46 47 45 44 43 41 39 37 37 36 36
8 7 5 4 4 3 3 5 4 5 7 5 4 5 3 3 3 3 1 1 4 5 6 5 5 6 7 10 14 12 6 3 4 10 12 11 15 13 15 18 21 23 24 25 26 26 27 27 28 30 31 33 35 35 34 34 35 36 37 38 37 36 36 36 36 37 38 39 39 40 41 42 43 44 45 47 48 48 46 45 43 41 39 38 38 37
5 6 5 4 4 4 4 4 4 6 5 3 4 5 4 4 3 2 2 2 2 4 8 9 8 9 8 11 14 8 2 2 4 11 18 15 15 15 18 21 24 26 27 29 29 29 30 30 31 33 34 35 37 37 37 37 38 39 40 40 40 40 40 39 37 38 39 39 40 40 41 43 44 46 47 48 48 49 49 47 45 43 41 40 39 39
2 2 4 5 5 6 6 5 4 4 3 4 6 6 5 4 3 3 4 4 4 4 9 11 13 13 13 15 13 5 5 6 9 18 28 23 17 19 21 23 26 28 29 32 32 32 33 33 34 36 37 38 39 39 39 39 41 42 42 42 43 43 43 42 41 42 43 43 43 42 42 43 45 46 47 49 50 50 50 50 48 45 44 43 41 40
1 0 2 4 6 9 9 6 5 4 3 4 7 9 8 4 3 1 5 4 5 7 10 10 15 17 15 16 12 8 12 18 21 27 33 29 25 26 26 26 28 30 32 34 35 35 35 35 36 38 39 41 40 40 40 41 43 44 44 44 45 45 45 44 45 46 46 47 47 47 46 46 46 47 48 49 50 52 52 51 50 49 47 46 44 42
1 1 1 2 3 5 6 5 5 5 3 5 8 8 7 4 1 5 4 5 8 12 12 10 14 15 15 17 17 16 21 26 29 31 33 33 34 34 32 31 31 32 36 38 38 37 37 38 39 41 43 43 42 42 42 42 44 45 45 46 47 46 46 46 48 49 49 50 51 51 50 50 49 49 49 49 50 52 53 52 51 50 49 48 47 45
3 1 2 3 3 2 3 4 5 5 3 6 5 2 4 5 4 6 9 15 21 20 17 15 15 15 16 18 20 22 25 27 30 32 33 35 36 37 37 35 33 35 38 40 41 41 39 39 42 44 46 47 46 45 44 44 45 46 47 48 48 47 47 49 50 52 53 54 55 54 54 54 53 53 53 52 52 53 54 54 53 52 51 49 49 48
2 3 3 4 2 2 3 5 4 4 4 7 6 3 6 9 16 20 19 20 23 24 21 18 18 20 20 20 22 24 26 28 30 32 34 35 36 38 38 36 35 38 39 41 43 43 41 42 45 47 49 50 49 48 47 46 47 48 50 51 50 49 50 51 52 54 56 57 58 58 58 57 57 57 57 56 56 55 55 55 55 55 53 51 50 50
4 6 5 4 3 3 5 8 6 2 4 8 10 13 18 25 31 31 23 19 22 26 23 20 22 24 23 22 24 25 26 29 31 33 34 35 35 36 36 36 38 40 41 43 44 43 43 44 46 49 51 52 52 51 50 49 49 51 53 53 50 50 52 54 55 57 59 60 61 61 61 61 61 61 60 60 60 59 58 57 56 56 55 53 51 50
7 7 2 2 5 3 7 16 14 8 14 23 25 26 28 31 33 31 24 20 24 28 27 24 24 24 23 23 24 25 27 30 32 32 32 32 33 35 36 38 40 42 43 45 45 44 44 46 48 50 52 54 54 53 52 51 51 53 54 53 51 51 53 54 57 60 61 63 63 64 64 65 65 64 64 63 62 61 61 59 56 55 55 53 51 50
7 9 5 4 7 6 7 14 13 10 18 25 26 29 32 33 34 31 26 26 29 29 26 23 22 22 22 22 24 26 28 29 29 29 30 30 33 36 38 40 42 43 45 46 46 46 46 47 49 51 53 55 57 56 54 54 53 54 53 52 51 52 53 55 58 61 63 65 66 66 66 66 66 67 66 65 63 62 62 60 56 53 51 52 51 49
5 5 6 6 8 8 10 15 16 16 22 26 27 30 32 34 36 34 30 29 28 24 22 21 21 21 22 23 23 24 26 27 26 26 29 32 35 38 40 41 43 44 46 47 47 47 47 47 49 50 52 56 59 59 56 55 55 55 52 51 50 51 53 57 60 61 64 66 67 67 67 66 65 66 65 64 63 61 61 61 57 53 51 51 49 48
6 3 4 5 7 9 12 16 17 16 17 23 29 31 30 30 32 29 26 24 21 21 22 23 22 23 23 23 23 23 25 28 27 26 29 34 37 40 41 42 43 45 47 48 48 48 48 48 48 49 51 55 58 58 57 58 57 56 53 51 50 50 53 58 61 62 64 65 65 65 65 63 62 61 61 61 61 60 59 59 56 54 53 52 50 47
7 6 4 4 5 9 10 12 13 9 7 16 25 27 25 23 23 23 22 22 21 22 23 25 26 26 23 22 22 22 24 27 28 28 30 34 38 40 41 42 44 47 48 49 49 50 50 50 50 50 53 56 57 58 59 60 60 58 55 53 52 52 53 56 58 60 61 60 59 59 59 58 58 58 56 55 55 56 57 58 55 51 49 51 51 48
12 11 8 6 8 11 16 21 20 11 9 19 27 27 23 22 21 21 21 22 22 23 24 25 27 28 26 24 23 23 25 28 28 29 32 36 39 40 41 43 45 47 48 50 50 52 53 54 54 54 55 57 57 57 58 59 59 57 55 53 51 50 50 50 50 53 55 54 53 52 52 52 53 53 52 51 50 48 47 47 47 45 40 40 42 43
Wind_Direction
164 149 157 209 226 222 216 207 223 255 346 313 262 262 264 275 273 261 266 265 241 281 273 259 274 280 278 277 277 279 282 279 274 271 272 278 280 280 281 281 282 284 290 297 299 303 310 313 314 313 311 308 304 301 295 291 286 280 275 269 265 260 256 252 250 247 245 243 241 240 239 238 238 238 238 238 237 237 237 237 236 236 235 234 234 233
149 178 216 225 229 219 210 208 232 274 308 271 258 277 272 256 270 270 271 273 242 242 260 249 272 281 282 278 270 271 272 267 270 277 277 275 278 280 279 280 283 288 294 299 306 314 321 323 326 326 323 318 314 309 301 294 288 281 273 267 264 260 255 252 251 250 248 247 246 245 244 242 240 240 239 238 237 237 237 236 236 235 234 233 233 233
150 212 238 237 230 88 69 89 130 220 239 249 247 282 283 261 278 276 263 284 333 219 271 280 280 282 278 270 261 258 257 265 274 276 272 269 272 274 276 283 289 292 296 304 315 321 326 335 341 344 342 336 328 323 312 300 290 279 270 265 262 257 254 252 252 252 252 253 252 251 250 248 245 244 243 241 240 239 237 236 235 235 234 233 232 232
202 237 244 240 211 175 251 121 124 266 245 226 236 271 276 267 280 271 265 316 342 253 276 296 289 281 268 266 264 260 255 262 269 270 269 265 262 267 276 287 288 290 298 307 317 325 339 356 4 7 6 359 349 341 327 311 295 281 274 268 264 260 258 257 256 255 255 255 253 252 251 249 248 247 246 244 242 240 238 237 236 235 233 232 232 232
237 245 235 213 174 185 230 244 227 261 257 228 220 228 255 258 252 251 280 344 330 287 302 316 301 285 248 258 275 273 259 254 262 265 265 265 265 274 283 287 287 294 304 314 328 343 3 16 18 17 16 13 6 354 336 314 296 283 276 270 266 264 262 261 259 258 256 254 250 247 244 243 243 243 242 241 240 238 237 236 235 235 234 232 232 232
262 254 206 124 115 155 191 241 227 216 245 272 225 217 238 254 257 261 297 357 354 311 345 4 325 299 188 201 275 288 315 283 262 253 258 273 301 295 286 289 296 306 316 337 357 6 16 17 15 16 14 13 12 4 351 333 309 291 280 271 264 263 262 261 261 259 258 255 252 248 244 241 240 239 239 238 238 238 237 237 236 236 235 234 233 232
253 264 182 140 125 121 159 242 226 185 214 287 244 215 228 247 262 269 291 340 313 258 306 43 353 285 271 203 252 262 276 273 261 255 274 292 295 288 289 296 305 324 350 7 11 14 18 14 14 18 15 11 9 5 0 354 341 320 299 285 274 268 265 263 261 259 258 257 254 252 249 247 246 246 247 246 244 243 242 241 240 239 237 235 234 233
203 108 70 105 119 126 173 243 217 161 166 260 250 185 197 225 243 242 235 240 243 280 313 35 138 278 282 233 240 214 189 251 263 274 294 289 286 292 300 308 329 3 13 15 18 26 31 30 30 30 26 21 15 10 4 357 351 339 322 304 289 279 272 267 263 260 258 258 257 256 254 253 253 253 253 252 250 248 246 244 242 241 238 236 234 233
172 160 157 137 117 163 201 215 182 157 171 248 211 125 148 186 199 169 159 208 279 340 311 277 138 262 280 262 43 96 201 249 268 273 286 294 303 310 316 339 6 17 27 36 39 42 43 39 36 32 28 24 21 18 13 7 360 351 341 327 310 295 283 275 269 265 261 260 259 259 258 256 257 255 253 253 252 251 249 246 244 241 239 236 234 233
170 166 180 152 141 208 212 205 173 163 188 217 135 94 78 77 76 94 122 124 36 319 258 212 172 246 283 280 105 59 263 259 263 266 278 305 319 325 348 14 15 24 47 57 51 43 35 28 25 21 18 17 16 16 15 14 12 7 1 353 343 329 309 292 279 271 268 265 262 261 260 259 259 257 254 254 253 252 250 249 247 244 241 238 235 233
214 79 128 174 200 205 160 137 170 161 158 124 105 56 40 40 42 56 47 88 53 290 237 197 190 199 285 299 154 189 234 227 251 312 301 308 316 316 347 13 22 42 59 56 42 30 20 16 15 10 10 11 9 9 10 12 15 15 13 8 2 354 341 324 302 285 276 270 267 266 264 263 262 260 257 256 256 255 253 251 250 247 245 241 237 235
174 124 230 234 222 178 108 88 26 88 112 101 83 47 28 344 12 28 351 46 155 264 253 208 194 185 240 266 238 266 269 231 213 314 303 304 300 303 340 16 40 59 57 40 25 16 12 12 9 5 6 6 5 4 4 5 8 11 13 12 9 3 355 344 327 307 291 279 273 270 268 266 264 261 260 259 259 258 257 256 254 251 248 245 240 237
249 214 247 279 226 182 133 92 2 21 84 108 105 105 34 318 352 358 313 63 214 250 272 238 179 214 246 251 262 277 279 262 216 250 279 288 291 314 357 32 53 52 38 24 16 14 16 15 10 7 4 4 5 4 2 0 360 2 7 10 10 8 2 353 341 326 309 294 285 278 274 272 268 264 263 263 261 261 260 259 257 255 253 249 246 242
287 277 227 244 256 191 163 162 223 243 169 158 157 155 154 178 226 275 260 259 273 271 302 273 172 259 280 274 239 245 265 282 281 268 279 293 303 334 23 42 42 36 26 20 19 20 19 16 13 9 5 6 7 4 1 0 357 356 360 4 7 6 3 358 349 337 322 309 299 289 282 276 272 269 268 267 266 264 263 261 260 259 258 256 253 249
255 293 217 189 230 175 177 196 182 140 154 177 162 145 158 169 190 234 230 252 276 280 313 306 187 229 268 282 240 239 272 311 314 300 304 319 331 25 44 37 33 32 31 30 29 28 23 18 15 12 11 12 10 4 0 359 358 355 357 1 2 1 358 356 351 343 332 320 309 298 290 282 276 273 272 271 270 269 267 265 263 262 261 260 258 255
216 267 246 222 141 159 180 210 137 106 130 199 122 117 199 193 177 229 246 236 256 276 275 243 230 231 238 283 280 261 280 314 317 329 19 42 58 56 40 38 40 40 39 37 35 35 31 27 24 21 20 18 14 11 5 0 358 355 356 359 1 1 358 353 349 343 334 324 314 305 298 291 284 279 276 274 272 271 269 268 266 266 265 264 261 259
236 265 272 34 90 183 188 187 135 140 188 165 120 181 221 171 144 208 278 294 78 259 249 210 252 277 292 288 290 235 98 14 8 27 51 49 47 43 39 45 49 45 45 44 42 42 39 37 36 33 32 29 27 24 19 14 7 0 358 358 359 1 1 359 353 346 337 327 318 311 304 297 290 285 280 277 274 272 271 270 268 268 267 266 264 262
247 273 260 148 216 237 204 122 31 57 138 134 172 213 197 118 117 126 268 335 293 252 248 215 250 271 281 279 306 16 337 6 22 23 35 28 28 38 46 49 47 46 48 46 44 43 40 38 37 35 34 32 31 29 26 24 19 14 8 3 359 357 359 1 358 355 348 337 326 316 308 301 295 289 284 280 276 273 271 270 270 269 268 267 267 266
238 279 276 184 194 240 66 58 333 339 140 146 203 234 118 172 229 131 176 233 245 253 255 221 239 251 248 261 284 284 286 351 30 21 31 28 25 34 43 43 41 43 43 41 41 40 37 35 32 30 30 28 28 28 26 24 21 18 15 10 6 1 0 1 358 358 356 350 343 332 318 307 299 294 290 287 283 279 276 274 272 271 270 269 268 267
86 236 269 8 151 140 57 99 214 244 302 52 8 310 64 176 200 179 176 178 228 253 260 241 235 231 227 241 267 280 310 29 46 37 39 38 35 35 36 38 37 38 38 37 37 35 34 34 32 30 29 27 27 25 25 24 20 18 16 13 10 6 2 1 359 360 358 354 352 347 339 326 311 300 294 290 287 284 281 279 277 274 273 271 270 268
60 230 246 7 354 285 179 211 198 198 207 156 193 241 241 213 199 244 230 176 216 248 255 252 244 234 233 257 284 308 11 50 63 62 44 30 35 34 33 34 33 34 35 33 32 31 30 30 29 29 28 25 24 22 22 22 20 18 16 13 11 8 5 2 360 360 359 357 355 352 348 341 331 319 308 298 290 285 283 282 280 278 276 273 271 269
170 240 235 251 269 244 242 233 199 188 179 164 188 208 216 222 231 264 248 210 213 242 245 255 257 246 243 284 303 358 51 60 60 69 58 34 33 32 32 35 34 33 32 30 30 28 26 25 24 23 22 20 19 18 18 18 17 17 15 13 11 8 8 7 4 1 359 358 357 355 352 346 340 333 324 315 306 297 291 288 285 283 280 276 274 272
144 136 229 245 243 248 265 257 190 175 162 152 205 217 228 231 221 243 250 235 222 237 243 257 262 243 203 251 316 58 74 66 60 70 68 44 37 34 34 34 33 32 29 26 25 23 22 21 19 18 17 17 16 15 15 14 14 15 14 13 10 8 7 6 5 4 2 359 358 357 355 350 345 340 333 326 318 311 305 300 295 290 284 281 278 275
92 114 247 256 263 286 292 288 222 126 130 200 236 214 216 242 244 244 251 266 252 242 250 258 259 270 303 306 64 86 88 75 65 67 66 51 38 35 36 34 31 27 23 20 18 16 15 14 13 13 13 13 12 11 11 10 9 10 9 9 8 8 7 4 2 1 1 1 1 359 359 357 353 348 343 336 326 317 310 305 301 297 292 288 284 279
347 229 261 284 292 308 300 292 319 1 11 219 242 239 228 245 268 281 285 287 262 226 235 256 259 248 325 334 19 70 83 81 74 71 72 63 45 38 36 33 30 25 21 18 13 11 9 7 7 6 6 7 7 7 6 5 5 4 4 5 4 4 4 3 1 359 358 358 358 357 358 358 358 355 351 345 337 327 317 307 299 296 293 292 289 286
287 242 253 277 271 264 270 269 273 310 277 238 287 307 317 245 245 283 290 261 254 231 230 253 267 260 296 309 319 13 55 82 89 82 79 71 56 46 38 32 29 25 22 19 15 12 9 6 3 1 0 1 0 1 1 359 359 358 358 359 359 359 359 359 359 359 358 357 355 355 354 354 356 356 354 350 345 338 329 317 304 295 290 289 289 288
289 255 234 249 257 259 271 276 284 299 277 270 281 288 290 269 246 256 260 245 264 272 255 255 267 274 283 287 295 14 45 64 82 80 77 68 55 43 33 26 23 20 19 17 15 13 10 7 4 0 358 357 355 356 355 355 354 353 352 352 352 352 352 352 353 354 354 355 354 354 354 353 353 353 353 352 348 344 338 329 317 304 293 287 284 283
189 265 239 246 257 261 273 280 288 294 281 275 280 278 278 276 263 251 252 255 273 281 264 255 265 271 273 274 289 42 45 68 88 86 73 55 42 33 26 19 14 11 10 10 10 9 7 5 3 1 359 356 354 353 351 351 350 349 349 348 347 346 346 345 346 347 348 349 350 350 351 351 350 350 349 348 347 345 342 337 330 319 305 292 283 279
171 264 257 260 271 273 280 288 293 296 287 281 282 282 284 283 271 262 262 267 269 265 265 272 272 270 272 267 127 70 37 79 106 80 44 27 19 22 19 13 10 7 3 4 4 3 1 359 358 357 356 355 353 352 350 349 347 346 346 345 344 344 343 342 341 342 342 343 344 345 345 345 345 345 345 344 343 344 343 341 337 330 320 305 290 281
188 256 263 270 284 285 284 288 294 296 291 285 281 279 276 271 267 267 269 269 262 257 263 270 268 268 275 146 121 100 57 90 129 318 333 345 357 10 10 7 5 1 357 357 356 355 354 352 352 350 350 351 350 349 348 347 345 344 343 342 341 341 340 339 338 338 339 339 339 339 339 339 339 340 341 341 340 340 341 341 339 336 331 321 305 289
273 276 316 341 306 288 283 283 289 292 288 287 287 280 269 262 261 263 265 265 262 262 263 262 263 265 279 94 115 105 78 76 118 286 287 296 329 355 358 357 355 352 349 347 346 347 347 346 347 346 345 345 344 343 344 342 340 340 339 338 339 338 337 336 335 335 336 336 336 335 335 334 334 334 335 335 336 336 336 337 337 336 334 330 321 305
299 296 337 341 289 273 279 286 295 305 299 288 275 266 262 259 258 257 258 258 260 265 268 266 267 261 125 99 84 104 86 15 312 311 302 293 300 334 347 348 347 343 340 338 339 341 341 342 343 342 341 340 339 338 338 336 335 335 335 335 335 334 333 332 330 331 331 332 333 334 334 333 332 331 331 330 331 331 332 333 333 333 333 332 328 318
247 267 288 285 274 275 280 288 322 341 306 282 262 254 254 256 257 257 260 263 263 267 271 270 271 183 138 108 49 22 349 313 283 314 320 307 291 306 331 337 336 333 330 331 332 333 335 336 336 336 335 333 332 331 331 331 329 329 330 330 330 329 328 328 327 327 326 327 329 331 332 332 331 331 330 329 328 326 327 329 329 330 330 329 328 324
233 254 258 243 256 273 281 326 27 302 274 271 264 236 239 249 257 261 261 262 258 190 209 213 119 133 152 133 158 245 272 293 291 302 317 308 285 287 314 325 328 327 324 324 325 325 327 327 327 327 327 327 326 326 326 325 324 324 324 324 324 325 325 325 324 324 323 323 324 325 328 329 329 330 330 329 327 324 323 324 324 326 326 325 324 323
244 246 245 222 228 269 308 21 298 263 254 267 294 212 220 223 225 247 248 213 211 179 142 123 125 160 180 196 228 239 254 278 285 288 303 298 266 256 295 316 322 323 321 321 321 322 323 323 322 321 321 321 321 320 321 320 319 319 319 320 321 321 322 322 321 321 321 320 320 321 323 324 326 327 328 328 327 325 323 321 320 320 321 321 320 319
238 237 230 208 213 256 29 215 246 264 288 290 281 262 239 140 124 110 251 187 195 211 159 145 166 194 218 246 258 258 262 274 277 278 286 275 235 234 283 312 319 318 316 316 317 318 320 321 319 318 317 317 316 315 316 316 314 314 315 316 318 318 319 319 318 318 318 317 318 319 320 321 322 323 324 325 325 323 322 321 319 318 318 317 316 316
218 218 202 217 230 223 217 229 250 309 313 288 275 256 160 167 156 132 240 219 199 204 213 180 191 217 234 252 263 263 266 278 281 282 280 243 210 230 285 309 316 315 312 313 312 311 313 315 315 315 315 314 313 312 313 312 311 311 312 313 315 316 315 316 316 316 315 315 316 316 317 318 318 319 320 321 321 320 319 318 317 316 316 314 312 311
207 211 196 222 244 216 224 254 261 278 279 266 258 263 248 222 211 166 119 242 185 203 229 210 216 239 232 246 260 258 266 303 280 280 277 228 212 249 293 308 314 314 313 313 311 309 309 309 311 313 313 312 311 311 311 310 309 310 310 311 313 313 313 313 314 313 312 312 314 314 315 316 316 316 316 315 316 316 316 315 314 313 313 311 310 308
191 211 203 218 251 230 232 251 242 255 266 204 203 240 239 229 217 123 6 296 165 236 245 210 217 250 238 243 254 240 220 290 251 277 285 260 236 265 296 310 314 315 315 315 313 310 309 309 309 311 311 311 311 311 310 308 307 308 307 308 310 310 310 311 312 311 310 310 312 313 313 314 313 313 313 312 312 312 312 312 312 311 310 308 306 306
118 204 213 214 233 238 242 249 245 259 266 198 206 223 215 198 133 66 315 269 177 254 262 216 217 245 247 247 251 211 186 234 249 283 293 283 264 274 292 304 311 313 313 314 312 310 307 306 306 307 308 308 309 309 308 305 305 304 303 305 305 305 306 309 310 309 308 308 309 310 310 311 311 311 311 310 309 309 308 309 309 309 308 306 304 303
25 343 233 219 230 235 237 248 259 259 249 215 205 192 173 133 81 214 261 246 193 250 271 235 228 248 255 251 243 219 238 260 272 285 290 284 273 277 286 295 303 308 310 311 310 308 304 303 303 304 305 306 306 306 305 303 302 301 301 302 302 302 304 306 305 304 305 306 306 306 306 306 307 308 308 308 308 307 306 305 306 306 306 306 304 301
215 44 267 229 228 236 236 248 268 275 249 200 192 180 156 121 224 221 239 323 305 292 298 275 251 257 263 259 255 256 268 280 287 289 289 283 276 276 282 289 296 302 306 307 308 305 302 301 301 302 304 305 304 303 303 302 300 299 299 299 299 300 302 302 301 302 302 302 302 302 303 303 304 304 305 305 306 306 304 303 302 302 303 303 302 301
182 158 251 222 196 216 238 235 253 272 230 165 168 184 153 162 228 279 305 313 307 304 306 295 279 276 273 270 274 280 285 292 295 294 293 289 281 277 278 284 291 297 301 304 305 303 301 300 301 302 303 303 303 303 303 301 300 299 299 298 298 300 300 299 299 299 299 299 299 299 300 300 301 301 302 302 303 303 302 300 300 300 299 299 299 299
191 181 231 234 204 192 217 224 225 225 193 163 158 220 251 262 287 299 301 300 301 303 302 296 291 291 287 283 286 289 291 295 298 299 298 293 286 279 277 282 289 295 298 301 302 302 301 301 302 303 302 302 303 303 303 302 300 299 299 299 299 299 298 297 297 297 296 297 297 298 298 299 299 299 300 300 300 300 300 298 298 298 297 296 297 297
216 200 211 239 228 169 203 243 246 209 240 251 252 262 275 287 293 294 292 290 294 298 298 293 292 296 298 295 291 291 292 295 298 300 296 290 284 280 279 284 290 294 298 300 300 301 302 303 304 303 302 302 303 303 303 301 300 298 298 299 299 297 296 296 296 295 295 295 296 296 297 297 297 297 297 298 298 298 297 297 296 295 295 294 294 293
235 222 198 266 266 251 251 258 259 261 269 273 275 276 280 286 289 290 290 289 290 294 296 294 294 298 302 300 295 292 293 296 297 295 290 284 280 280 283 288 293 297 300 301 302 304 305 304 304 303 302 303 303 303 301 300 298 297 297 298 297 296 296 295 294 294 294 294 294 294 295 295 295 294 294 294 294 295 295 294 294 293 292 292 291 289
249 230 210 240 262 263 262 259 253 251 262 269 275 278 280 282 285 287 289 290 291 296 298 297 298 299 299 299 296 294 295 296 292 287 285 283 284 286 290 295 299 302 303 304 305 306 305 304 303 302 301 301 301 301 299 298 297 296 295 296 296 295 294 293 292 292 292 292 292 292 293 293 293 292 291 291 291 291 291 291 291 290 289 288 287 285
244 213 207 232 244 239 250 262 264 262 264 268 271 273 275 280 284 287 290 291 293 295 295 296 297 296 297 299 297 294 295 293 288 288 291 291 292 295 298 302 304 305 306 306 307 306 304 302 301 300 299 299 299 299 298 296 295 294 294 295 294 294 293 291 291 291 291 291 291 291 291 291 291 291 291 290 289 289 288 288 288 287 286 284 283 281
220 197 187 209 242 249 255 264 269 270 269 268 268 270 274 280 284 288 291 290 288 289 291 293 296 297 298 299 297 294 294 293 294 299 300 298 298 301 304 306 307 307 307 307 306 305 303 302 301 300 298 297 297 297 296 295 294 293 294 294 294 293 292 291 291 291 291 290 291 290 290 291 291 291 291 291 290 288 286 285 285 285 284 282 280 277
215 230 211 184 245 260 256 256 260 263 268 268 272 277 282 284 285 286 286 286 287 290 293 296 298 300 300 299 299 300 299 300 302 305 304 303 304 306 308 309 308 308 308 307 306 305 303 302 301 300 298 296 296 296 295 294 294 294 294 294 294 294 293 293 292 292 291 291 291 291 291 292 291 291 291 291 290 289 287 285 284 285 284 282 279 277
220 229 227 215 239 255 261 266 264 255 253 269 278 285 286 284 283 281 282 286 290 293 296 299 300 302 303 305 307 309 307 307 310 310 309 308 309 309 310 310 309 308 307 306 305 305 303 303 302 301 299 299 299 298 297 296 296 296 297 298 298 297 296 296 295 294 293 293 293 293 294 294 293 292 292 292 292 292 291 287 284 281 279 277 277 279